Theta_e
285 285 283 282 281 279 279 278 277 277 277 276 276 276 276 276 276 275 275 275 275 275 275 275 275 275 275 275 275 275 275 276 273 275 277 278 277 278 280 280 281 281 281
285 283 282 280 279 278 277 276 277 276 276 276 275 275 275 274 274 274 273 274 273 273 273 273 272 274 273 273 273 272 272 273 273 270 273 274 274 276 277 277 279 280 280
284 283 280 279 278 277 276 276 276 275 275 275 274 274 273 274 273 273 273 272 272 272 272 272 272 272 272 273 273 272 273 274 273 271 270 273 273 274 275 276 276 277 279
283 282 280 278 277 276 276 275 275 274 274 273 273 273 273 272 272 272 272 272 272 272 273 273 273 273 273 273 273 273 273 272 272 271 271 271 272 274 274 273 273 276 277
283 281 279 277 276 276 275 275 274 273 273 273 272 272 272 271 272 271 272 272 272 272 273 274 274 274 275 276 275 274 274 273 272 272 271 271 272 272 272 274 274 275 277
281 279 278 276 275 275 274 274 273 273 272 272 272 271 270 271 274 276 276 273 274 273 272 273 274 273 274 277 277 278 277 274 273 272 272 272 272 273 274 274 274 273 272
279 278 276 275 274 274 273 272 272 271 272 271 271 271 271 271 274 276 276 275 273 272 272 273 273 274 274 274 276 277 277 278 278 274 272 272 273 275 276 275 275 275 275
278 277 275 274 273 273 272 271 271 271 271 270 270 271 270 270 274 275 275 274 273 273 273 273 274 274 275 275 275 274 274 275 276 276 274 274 275 276 276 276 276 276 277
276 275 274 273 273 272 271 270 270 270 270 270 270 269 269 269 272 273 275 273 273 273 274 274 274 274 275 277 274 272 273 273 277 278 278 279 280 282 280 278 276 274 273
276 275 274 273 272 271 270 270 270 270 270 270 269 270 269 267 271 274 275 273 271 272 274 274 274 273 276 277 274 273 270 272 273 273 274 275 277 277 279 279 278 275 276
275 273 272 271 270 271 269 269 269 268 269 268 268 268 269 270 270 273 276 274 272 273 271 271 271 274 276 276 277 272 272 274 274 273 275 274 275 276 276 277 278 278 276
273 271 270 269 269 269 268 267 266 267 266 266 266 268 271 272 272 273 275 276 276 271 271 271 272 275 274 274 273 274 275 274 269 270 271 272 274 275 276 278 280 280 280
270 268 267 267 267 267 266 265 265 265 266 267 268 269 269 270 270 272 273 275 274 272 271 273 273 272 272 270 271 273 271 269 268 267 267 270 273 276 277 277 279 280 281
267 266 266 265 264 265 266 266 266 265 266 268 268 268 268 268 269 269 271 269 272 271 272 266 268 269 270 269 268 269 269 268 268 267 268 269 271 272 273 276 278 279 279
267 266 265 265 265 264 266 266 267 268 268 267 267 266 266 265 267 273 272 271 270 271 265 262 262 263 264 265 265 266 267 267 268 268 268 268 269 271 271 274 276 279 278
266 265 265 264 265 265 265 266 271 270 272 272 271 268 266 270 272 272 273 273 271 271 257 258 260 261 262 263 263 264 265 266 267 268 268 268 267 268 268 270 272 272 278
268 266 265 265 265 265 264 264 264 269 272 271 270 270 270 270 270 271 271 270 268 265 252 258 259 260 261 262 263 263 264 265 267 268 267 267 268 267 266 266 268 271 273
268 267 266 265 265 265 264 263 263 262 263 263 268 267 267 268 269 269 269 263 254 258 253 257 258 259 260 261 262 263 264 264 266 267 267 267 266 265 264 265 266 267 269
267 266 266 265 265 265 265 265 264 263 262 260 260 265 262 266 267 266 265 251 249 251 255 256 257 258 259 261 262 263 264 263 266 266 267 266 265 264 263 264 265 266 267
266 265 265 264 263 262 262 261 261 260 260 259 258 256 253 254 250 248 248 247 247 249 253 255 256 257 259 260 261 262 263 264 266 267 266 265 265 264 264 264 264 264 265
264 263 263 262 261 261 261 260 260 259 258 257 255 254 261 251 248 246 245 246 247 248 253 254 255 256 258 260 261 262 262 264 267 267 266 265 265 264 264 265 265 265 265
262 260 261 260 260 260 260 259 259 258 257 255 253 253 262 250 247 246 245 245 246 247 251 252 254 256 257 259 260 261 263 263 267 268 266 265 265 264 264 264 264 264 265
261 260 260 259 259 259 258 258 257 257 256 254 253 252 250 248 247 245 245 245 246 250 252 251 252 255 257 259 260 262 263 264 268 268 266 265 264 264 264 263 263 264 266
260 260 259 258 258 257 257 256 257 256 254 253 252 250 250 246 245 245 244 245 246 249 251 251 252 253 256 258 260 262 264 266 271 268 266 265 264 264 264 263 263 264 264
260 258 258 257 257 256 256 255 255 254 254 253 251 250 248 249 246 244 244 245 247 249 250 251 252 253 254 256 259 261 264 268 271 268 266 265 264 264 264 263 263 263 264
259 258 258 258 257 256 256 255 254 254 253 252 252 250 249 248 246 245 245 247 248 249 249 251 252 251 253 257 260 263 266 272 271 268 267 265 264 263 264 263 262 263 262
Wind_Speed
15 13 12 11 10 9 10 9 8 7 7 7 6 4 3 2 3 4 4 4 6 7 8 9 12 11 8 8 9 10 11 11 16 24 19 22 21 19 16 16 18 17 18
13 13 12 10 10 11 10 9 8 8 7 7 6 5 5 5 5 5 4 5 7 9 10 11 12 9 12 11 10 14 13 13 13 21 23 20 24 20 19 20 17 15 18
13 15 13 14 14 13 10 9 8 8 7 7 7 6 5 4 5 4 5 7 8 10 11 11 12 12 13 11 13 13 13 12 13 15 20 17 19 17 18 18 19 19 17
15 16 15 15 14 12 10 9 9 8 8 7 7 6 5 5 5 6 8 8 9 10 11 12 13 14 16 15 15 16 15 15 15 16 17 17 16 16 15 15 17 13 17
16 17 16 12 12 11 11 10 9 9 7 6 6 5 4 4 4 7 8 8 10 12 12 13 14 15 25 24 15 16 17 15 14 15 17 17 15 14 16 14 17 14 18
17 16 14 13 13 13 13 12 11 9 8 8 7 5 5 4 11 14 11 8 11 12 13 13 14 17 20 29 30 34 29 20 19 16 17 18 20 18 16 16 17 15 18
16 16 16 15 15 15 13 12 11 10 9 8 7 7 6 5 12 13 14 9 10 12 14 14 14 12 18 18 26 34 33 35 36 25 24 20 22 19 19 20 18 17 18
16 16 16 17 16 14 14 13 11 9 9 7 7 6 4 5 11 11 13 10 9 13 14 15 17 18 17 20 21 21 22 21 20 18 23 23 21 19 21 20 21 21 19
16 17 18 18 16 15 14 13 11 10 9 7 6 5 6 6 11 11 11 7 10 12 13 14 15 16 26 31 22 22 22 20 22 35 39 40 41 39 33 18 17 16 17
19 17 17 17 17 17 15 14 11 10 9 7 6 6 6 6 10 10 11 5 7 9 12 11 19 19 30 32 22 19 22 19 20 23 21 24 28 25 35 22 16 18 14
13 14 14 14 16 15 14 11 11 9 8 7 7 6 7 8 8 9 13 7 6 9 8 10 11 26 32 33 30 18 19 24 24 18 16 12 15 16 14 16 19 17 17
14 15 14 14 11 12 15 11 10 9 8 6 6 5 5 4 5 7 12 14 16 8 10 11 13 31 29 30 23 29 32 26 13 13 13 12 13 13 13 15 18 19 18
15 14 15 14 12 13 13 13 10 9 7 7 6 5 4 3 2 7 11 15 16 12 10 18 28 27 28 20 26 29 22 12 12 12 13 13 13 13 16 17 19 21 21
15 16 15 14 13 12 11 9 8 10 8 7 5 5 4 3 2 4 4 3 8 8 13 10 17 20 21 20 15 16 12 13 13 13 12 14 14 13 13 13 14 13 14
15 14 14 12 14 13 9 10 9 7 9 7 6 5 4 3 4 5 7 5 5 9 8 7 8 9 11 11 11 13 12 13 13 13 13 14 14 13 13 12 13 14 14
15 14 14 13 12 12 11 11 13 14 15 14 13 8 2 4 3 6 9 13 13 16 3 6 8 9 10 12 12 13 13 16 14 15 14 14 14 13 14 13 12 13 13
18 16 12 14 12 11 12 12 12 11 15 13 13 10 6 2 2 6 9 13 13 10 1 6 8 10 11 11 12 13 15 15 17 15 15 15 13 14 15 13 12 13 13
16 23 15 12 11 12 12 11 10 11 10 8 10 8 5 1 2 6 10 8 4 6 2 7 8 10 11 11 12 13 14 15 15 16 16 13 13 13 13 13 12 13 13
16 14 16 12 10 12 12 11 9 9 8 7 4 7 4 2 5 8 9 2 3 3 5 7 8 10 10 11 12 14 15 15 16 17 15 14 13 13 13 13 13 17 17
15 18 14 12 12 11 10 11 9 8 7 7 6 3 1 3 3 2 1 1 2 2 4 6 9 10 11 11 12 14 15 16 16 16 17 15 14 13 14 14 13 13 13
12 14 18 12 11 10 10 9 8 8 7 6 5 3 9 4 3 1 2 2 4 2 6 7 8 9 10 11 12 13 15 16 16 17 17 16 15 14 13 13 13 13 14
12 12 11 11 11 11 9 8 8 8 7 7 4 1 9 2 4 1 2 3 3 2 5 7 8 8 9 11 13 14 16 17 17 19 20 18 16 15 15 15 14 13 13
13 15 12 11 10 13 10 8 7 7 7 5 5 4 1 2 2 2 3 3 2 4 7 6 7 8 9 10 11 13 15 18 16 19 21 19 18 17 16 16 15 14 13
14 14 14 11 10 10 9 8 7 8 7 5 5 3 3 2 2 1 3 3 2 4 6 7 6 8 11 11 12 13 15 18 13 18 25 19 19 20 17 17 15 19 15
14 13 12 11 10 10 10 8 7 6 6 5 4 3 2 2 2 2 3 3 4 5 8 8 7 9 11 18 18 21 25 27 20 24 18 21 23 26 20 17 19 17 18
12 13 11 9 9 9 8 8 8 6 4 3 3 2 2 2 2 2 3 4 5 6 8 8 9 12 15 14 17 24 28 25 23 26 19 18 19 20 19 22 27 18 21
Wind_Direction
191 187 186 180 171 161 169 163 162 157 157 153 157 175 193 211 228 235 238 260 267 265 264 268 269 272 272 271 268 264 260 256 261 282 282 295 290 286 284 283 281 277 280
185 180 183 166 167 167 164 161 156 152 150 149 159 171 193 214 231 238 252 261 264 267 267 268 269 273 272 270 266 264 261 259 262 269 280 287 286 291 286 281 279 278 280
177 180 176 176 175 174 162 154 146 148 150 154 163 181 195 211 232 250 259 261 261 261 263 265 270 271 270 267 266 267 266 265 262 262 270 276 282 286 286 277 276 273 268
178 180 181 179 175 164 152 149 152 149 155 166 176 185 185 203 238 249 258 260 261 263 268 271 273 272 273 275 271 270 268 266 261 261 263 270 269 276 273 279 276 271 276
177 180 180 167 161 151 149 150 145 154 161 157 168 180 185 212 236 244 249 259 272 276 275 278 277 273 276 276 281 278 273 267 265 267 266 264 265 268 267 273 272 280 275
176 176 165 158 157 156 153 154 154 156 162 168 179 188 203 226 247 257 269 267 275 286 286 280 279 279 273 279 283 285 280 280 275 272 273 270 265 261 262 265 269 272 279
167 168 166 162 160 162 155 151 160 167 163 174 184 195 209 225 257 266 273 288 286 283 281 283 284 280 282 282 280 278 279 275 273 275 272 269 274 271 271 269 268 269 273
169 167 163 163 162 158 156 159 157 157 167 176 185 195 203 241 256 274 285 282 279 279 279 283 287 291 290 292 292 291 283 278 275 267 263 266 264 264 262 266 268 270 270
174 173 169 165 162 159 163 157 159 158 168 174 164 177 208 239 268 275 284 284 278 283 287 293 298 304 301 299 299 295 288 285 281 279 276 276 273 264 258 262 257 259 260
182 177 168 164 162 163 161 162 160 160 158 161 176 184 204 226 254 268 291 270 284 292 294 308 306 304 305 304 299 298 292 294 294 283 267 263 269 268 274 268 267 272 265
162 162 164 162 159 155 151 153 152 154 152 157 170 198 212 223 233 276 293 297 295 302 317 308 304 305 316 314 309 309 295 300 306 304 291 261 260 257 256 259 260 258 260
154 155 157 156 153 148 148 144 144 148 143 161 181 200 208 180 229 285 305 313 319 328 312 308 300 319 318 322 321 315 310 318 307 304 301 276 271 255 255 253 255 251 247
153 158 152 150 152 149 148 144 148 154 154 170 180 179 167 200 214 289 310 325 332 323 314 308 324 316 319 322 320 323 327 308 309 307 303 297 291 291 269 262 258 255 248
161 159 157 153 151 152 144 151 155 154 165 166 177 165 174 175 230 257 252 283 308 324 315 328 314 317 316 319 319 317 317 310 310 308 302 303 297 292 286 283 273 258 253
164 163 164 156 161 156 151 157 158 163 160 158 147 161 167 181 246 317 351 340 342 322 359 315 313 320 324 323 321 314 319 314 312 314 306 304 296 293 290 285 285 261 248
172 172 173 159 162 157 147 140 159 157 160 161 161 165 179 224 333 6 353 359 351 353 354 312 317 323 322 321 320 320 319 323 313 315 310 304 297 296 295 290 287 286 259
172 169 172 159 164 152 141 146 150 160 161 158 158 163 139 190 35 26 14 15 356 3 338 314 322 328 316 321 318 322 317 320 308 315 310 301 300 301 296 289 286 287 280
173 166 169 161 161 147 149 149 147 159 161 164 170 150 124 115 82 42 36 26 330 347 302 325 326 313 314 319 316 321 316 318 314 318 310 310 308 301 296 290 285 281 282
169 169 157 149 144 145 141 139 144 153 154 150 145 147 83 115 111 60 48 114 274 311 316 328 309 304 309 313 314 318 317 313 318 319 318 318 310 303 295 288 283 279 274
158 158 149 135 138 137 136 137 141 144 147 147 139 152 211 78 60 355 359 4 303 268 317 312 307 306 309 314 316 320 318 314 324 325 325 320 313 305 297 292 284 279 272
148 141 137 130 135 134 133 138 144 140 143 142 145 180 144 122 141 99 298 303 276 324 316 304 302 303 309 314 318 322 314 314 322 328 328 324 317 312 304 294 288 278 269
135 129 129 134 131 130 130 133 132 136 142 144 141 128 111 146 107 205 269 270 275 255 276 278 292 297 305 314 319 320 318 318 320 334 330 327 322 320 314 308 298 284 272
129 127 122 123 118 119 120 117 127 137 132 138 117 108 186 152 121 251 285 283 319 317 292 280 282 304 313 320 317 315 320 319 325 338 331 329 328 328 323 318 309 297 284
122 123 123 119 123 122 117 131 126 130 127 116 115 153 200 135 179 261 293 307 309 286 288 282 283 291 317 320 320 315 321 318 337 340 337 331 330 331 329 326 318 310 291
117 118 122 123 127 121 126 124 127 109 110 134 152 198 159 151 88 2 313 318 298 305 300 297 293 309 318 320 313 317 321 322 353 346 340 338 336 338 338 335 331 324 320
114 114 111 118 117 123 132 125 114 113 129 152 175 163 156 101 55 354 329 308 308 311 304 299 305 313 318 319 317 322 325 336 358 353 345 345 345 344 344 346 346 342 340